Time,TemperatureF,DewpointF,PressureIn,WindDirection,WindDirectionDegrees,WindSpeedMPH,WindSpeedGustMPH,Humidity,HourlyPrecipIn,Conditions,Clouds,dailyrainin,SoftwareType,DateUTC
2013-07-23 00:01:00,84.8,73.9,29.78,SSW,197,4.0,6.0,70,0.00,,---,0.00,VWS V14.00,2013-07-23 05:01:00,
2013-07-23 00:06:00,84.6,73.7,29.78,SSW,197,4.0,6.0,70,0.00,,---,0.00,VWS V14.00,2013-07-23 05:06:00,
2013-07-23 00:11:00,84.5,73.7,29.78,SSW,197,4.0,5.0,70,0.00,,---,0.00,VWS V14.00,2013-07-23 05:11:00,
2013-07-23 00:16:00,84.4,73.6,29.78,SSW,197,1.0,5.0,70,0.00,,---,0.00,VWS V14.00,2013-07-23 05:16:00,
2013-07-23 00:21:00,84.3,73.9,29.78,SSW,197,2.0,5.0,71,0.00,,---,0.00,VWS V14.00,2013-07-23 05:21:00,
2013-07-23 00:26:00,84.1,73.7,29.78,SSW,197,1.0,4.0,71,0.00,,---,0.00,VWS V14.00,2013-07-23 05:26:00,
2013-07-23 00:31:00,84.0,73.6,29.78,SSW,197,2.0,4.0,71,0.00,,---,0.00,VWS V14.00,2013-07-23 05:31:00,
2013-07-23 00:36:00,83.9,73.5,29.78,SSW,197,2.0,5.0,71,0.00,,---,0.00,VWS V14.00,2013-07-23 05:36:00,
2013-07-23 00:41:00,83.7,73.7,29.78,SSW,197,3.0,6.0,72,0.00,,---,0.00,VWS V14.00,2013-07-23 05:41:00,
2013-07-23 00:46:00,83.6,73.6,29.78,SSW,196,6.0,10.0,72,0.00,,---,0.00,VWS V14.00,2013-07-23 05:46:00,
2013-07-23 00:51:00,83.6,73.6,29.78,South,190,5.0,10.0,72,0.00,,---,0.00,VWS V14.00,2013-07-23 05:51:00,
2013-07-23 00:56:00,83.6,73.2,29.78,South,184,4.0,9.0,71,0.00,,---,0.00,VWS V14.00,2013-07-23 05:56:00,
2013-07-23 01:01:00,83.6,73.2,29.78,South,173,7.0,13.0,71,0.00,,---,0.00,VWS V14.00,2013-07-23 06:01:00,
2013-07-23 01:06:00,83.7,73.3,29.78,South,180,6.0,11.0,71,0.00,,---,0.00,VWS V14.00,2013-07-23 06:06:00,
2013-07-23 01:11:00,83.7,73.3,29.78,South,169,6.0,11.0,71,0.00,,---,0.00,VWS V14.00,2013-07-23 06:11:00,
2013-07-23 01:16:00,83.7,73.3,29.78,SSE,163,6.0,10.0,71,0.00,,---,0.00,VWS V14.00,2013-07-23 06:16:00,
2013-07-23 01:21:00,83.6,73.2,29.78,SSE,168,7.0,11.0,71,0.00,,---,0.00,VWS V14.00,2013-07-23 06:21:00,
2013-07-23 01:26:00,83.5,73.1,29.78,South,171,3.0,11.0,71,0.00,,---,0.00,VWS V14.00,2013-07-23 06:26:00,
2013-07-23 01:31:00,83.4,73.0,29.78,South,172,10.0,11.0,71,0.00,,---,0.00,VWS V14.00,2013-07-23 06:31:00,
2013-07-23 01:36:00,83.3,72.9,29.77,South,169,7.0,10.0,71,0.00,,---,0.00,VWS V14.00,2013-07-23 06:36:00,
2013-07-23 01:41:00,83.3,72.9,29.77,SSE,163,6.0,12.0,71,0.00,,---,0.00,VWS V14.00,2013-07-23 06:41:00,
2013-07-23 01:46:00,83.2,72.8,29.77,South,173,10.0,12.0,71,0.00,,---,0.00,VWS V14.00,2013-07-23 06:46:00,
2013-07-23 01:51:00,83.2,72.8,29.77,South,181,7.0,11.0,71,0.00,,---,0.00,VWS V14.00,2013-07-23 06:51:00,
2013-07-23 01:56:00,83.2,72.8,29.77,SSE,167,7.0,11.0,71,0.00,,---,0.00,VWS V14.00,2013-07-23 06:56:00,
2013-07-23 02:01:00,83.2,72.8,29.77,South,175,7.0,13.0,71,0.00,,---,0.00,VWS V14.00,2013-07-23 07:01:00,
2013-07-23 02:06:00,83.2,72.4,29.77,South,174,6.0,12.0,70,0.00,,---,0.00,VWS V14.00,2013-07-23 07:06:00,
2013-07-23 02:11:00,83.0,72.6,29.77,South,171,6.0,12.0,71,0.00,,---,0.00,VWS V14.00,2013-07-23 07:11:00,
2013-07-23 02:16:00,82.9,72.5,29.77,South,169,6.0,15.0,71,0.00,,---,0.00,VWS V14.00,2013-07-23 07:16:00,
2013-07-23 02:21:00,82.8,72.4,29.77,South,173,11.0,11.0,71,0.00,,---,0.00,VWS V14.00,2013-07-23 07:21:00,
2013-07-23 02:26:00,82.7,72.3,29.77,South,174,6.0,13.0,71,0.00,,---,0.00,VWS V14.00,2013-07-23 07:26:00,
2013-07-23 02:31:00,82.6,72.2,29.77,South,171,10.0,12.0,71,0.00,,---,0.00,VWS V14.00,2013-07-23 07:31:00,
2013-07-23 02:36:00,82.6,72.2,29.77,South,173,7.0,14.0,71,0.00,,---,0.00,VWS V14.00,2013-07-23 07:36:00,
2013-07-23 02:41:00,82.5,72.2,29.77,South,178,5.0,13.0,71,0.00,,---,0.00,VWS V14.00,2013-07-23 07:41:00,
2013-07-23 02:46:00,82.5,71.7,29.77,South,185,10.0,14.0,70,0.00,,---,0.00,VWS V14.00,2013-07-23 07:46:00,
2013-07-23 02:51:00,82.5,71.7,29.77,South,184,7.0,12.0,70,0.00,,---,0.00,VWS V14.00,2013-07-23 07:51:00,
2013-07-23 02:56:00,82.5,71.7,29.77,South,178,7.0,11.0,70,0.00,,---,0.00,VWS V14.00,2013-07-23 07:56:00,
2013-07-23 03:01:00,82.4,71.6,29.77,South,184,6.0,11.0,70,0.00,,---,0.00,VWS V14.00,2013-07-23 08:01:00,
2013-07-23 03:06:00,82.3,71.5,29.77,South,182,9.0,11.0,70,0.00,,---,0.00,VWS V14.00,2013-07-23 08:06:00,
2013-07-23 03:11:00,82.3,71.5,29.77,South,183,3.0,10.0,70,0.00,,---,0.00,VWS V14.00,2013-07-23 08:11:00,
2013-07-23 03:16:00,82.2,71.4,29.77,South,182,6.0,10.0,70,0.00,,---,0.00,VWS V14.00,2013-07-23 08:16:00,
2013-07-23 03:21:00,82.1,71.3,29.77,South,182,5.0,10.0,70,0.00,,---,0.00,VWS V14.00,2013-07-23 08:21:00,
2013-07-23 03:26:00,82.0,71.3,29.77,South,182,4.0,7.0,70,0.00,,---,0.00,VWS V14.00,2013-07-23 08:26:00,
2013-07-23 03:31:00,81.9,71.6,29.77,South,182,6.0,8.0,71,0.00,,---,0.00,VWS V14.00,2013-07-23 08:31:00,
2013-07-23 03:36:00,81.8,71.5,29.78,South,182,3.0,5.0,71,0.00,,---,0.00,VWS V14.00,2013-07-23 08:36:00,
2013-07-23 03:41:00,81.6,71.3,29.78,South,182,3.0,6.0,71,0.00,,---,0.00,VWS V14.00,2013-07-23 08:41:00,
2013-07-23 03:46:00,81.4,71.1,29.78,South,182,0.0,5.0,71,0.00,,---,0.00,VWS V14.00,2013-07-23 08:46:00,
2013-07-23 03:51:00,81.3,71.0,29.78,South,182,4.0,6.0,71,0.00,,---,0.00,VWS V14.00,2013-07-23 08:51:00,
2013-07-23 03:56:00,81.1,71.2,29.78,South,182,3.0,7.0,72,0.00,,---,0.00,VWS V14.00,2013-07-23 08:56:00,
2013-07-23 04:01:00,81.0,71.1,29.78,South,182,4.0,7.0,72,0.00,,---,0.00,VWS V14.00,2013-07-23 09:01:00,
2013-07-23 04:06:00,80.8,70.9,29.78,South,182,4.0,6.0,72,0.00,,---,0.00,VWS V14.00,2013-07-23 09:06:00,
2013-07-23 04:11:00,80.7,70.8,29.78,South,182,3.0,8.0,72,0.00,,---,0.00,VWS V14.00,2013-07-23 09:11:00,
2013-07-23 04:16:00,80.5,71.1,29.78,South,184,4.0,9.0,73,0.00,,---,0.00,VWS V14.00,2013-07-23 09:16:00,
2013-07-23 04:21:00,80.4,71.0,29.78,South,184,3.0,8.0,73,0.00,,---,0.00,VWS V14.00,2013-07-23 09:21:00,
2013-07-23 04:26:00,80.3,70.9,29.78,South,184,5.0,6.0,73,0.00,,---,0.00,VWS V14.00,2013-07-23 09:26:00,
2013-07-23 04:31:00,80.2,70.8,29.78,South,184,2.0,6.0,73,0.00,,---,0.00,VWS V14.00,2013-07-23 09:31:00,
2013-07-23 04:36:00,80.1,71.1,29.78,South,184,2.0,6.0,74,0.00,,---,0.00,VWS V14.00,2013-07-23 09:36:00,
2013-07-23 04:41:00,80.0,71.0,29.78,South,184,2.0,5.0,74,0.00,,---,0.00,VWS V14.00,2013-07-23 09:41:00,
2013-07-23 04:46:00,79.8,70.8,29.78,South,184,3.0,5.0,74,0.00,,---,0.00,VWS V14.00,2013-07-23 09:46:00,
2013-07-23 04:51:00,79.7,70.7,29.78,South,184,3.0,5.0,74,0.00,,---,0.00,VWS V14.00,2013-07-23 09:51:00,
2013-07-23 04:56:00,79.6,71.0,29.78,South,184,2.0,4.0,75,0.00,,---,0.00,VWS V14.00,2013-07-23 09:56:00,
2013-07-23 05:01:00,79.4,70.8,29.79,South,184,3.0,4.0,75,0.00,,---,0.00,VWS V14.00,2013-07-23 10:01:00,
2013-07-23 05:06:00,79.3,70.7,29.78,South,184,2.0,4.0,75,0.00,,---,0.00,VWS V14.00,2013-07-23 10:06:00,
2013-07-23 05:11:00,79.2,70.6,29.79,South,184,0.0,0.0,75,0.00,,---,0.00,VWS V14.00,2013-07-23 10:11:00,
2013-07-23 05:16:00,79.1,70.5,29.79,South,184,0.0,0.0,75,0.00,,---,0.00,VWS V14.00,2013-07-23 10:16:00,
2013-07-23 05:21:00,79.0,70.8,29.79,South,184,0.0,0.0,76,0.00,,---,0.00,VWS V14.00,2013-07-23 10:21:00,
2013-07-23 05:26:00,78.9,70.7,29.79,South,184,0.0,0.0,76,0.00,,---,0.00,VWS V14.00,2013-07-23 10:26:00,
2013-07-23 05:31:00,78.8,70.6,29.79,South,184,0.0,0.0,76,0.00,,---,0.00,VWS V14.00,2013-07-23 10:31:00,
2013-07-23 05:36:00,78.7,70.5,29.79,South,184,0.0,0.0,76,0.00,,---,0.00,VWS V14.00,2013-07-23 10:36:00,
2013-07-23 05:41:00,78.7,70.5,29.79,South,184,0.0,0.0,76,0.00,,---,0.00,VWS V14.00,2013-07-23 10:41:00,
2013-07-23 05:46:00,78.5,70.7,29.79,South,184,0.0,0.0,77,0.00,,---,0.00,VWS V14.00,2013-07-23 10:46:00,
2013-07-23 05:51:00,78.4,70.6,29.79,South,184,0.0,1.0,77,0.00,,---,0.00,VWS V14.00,2013-07-23 10:51:00,
2013-07-23 05:56:00,78.2,70.4,29.79,South,184,0.0,0.0,77,0.00,,---,0.00,VWS V14.00,2013-07-23 10:56:00,
2013-07-23 06:01:00,78.0,70.6,29.79,South,184,0.0,0.0,78,0.00,,---,0.00,VWS V14.00,2013-07-23 11:01:00,
2013-07-23 06:06:00,77.8,70.8,29.79,South,184,0.0,0.0,79,0.00,,---,0.00,VWS V14.00,2013-07-23 11:06:00,
2013-07-23 06:11:00,77.5,70.5,29.79,South,184,0.0,3.0,79,0.00,,---,0.00,VWS V14.00,2013-07-23 11:11:00,
2013-07-23 06:16:00,77.4,70.4,29.80,South,184,0.0,0.0,79,0.00,,---,0.00,VWS V14.00,2013-07-23 11:16:00,
2013-07-23 06:21:00,77.3,70.7,29.80,South,184,0.0,0.0,80,0.00,,---,0.00,VWS V14.00,2013-07-23 11:21:00,
2013-07-23 06:26:00,77.1,70.5,29.80,South,184,3.0,3.0,80,0.00,,---,0.00,VWS V14.00,2013-07-23 11:26:00,
2013-07-23 06:31:00,77.1,70.5,29.80,South,184,0.0,4.0,80,0.00,,---,0.00,VWS V14.00,2013-07-23 11:31:00,
2013-07-23 06:36:00,77.0,70.4,29.80,South,184,0.0,3.0,80,0.00,,---,0.00,VWS V14.00,2013-07-23 11:36:00,
2013-07-23 06:41:00,77.0,70.7,29.80,South,184,2.0,5.0,81,0.00,,---,0.00,VWS V14.00,2013-07-23 11:41:00,
2013-07-23 06:46:00,77.0,70.4,29.80,South,184,3.0,5.0,80,0.00,,---,0.00,VWS V14.00,2013-07-23 11:46:00,
2013-07-23 06:51:00,77.1,70.5,29.80,South,184,4.0,5.0,80,0.00,,---,0.00,VWS V14.00,2013-07-23 11:51:00,
2013-07-23 06:56:00,77.1,70.5,29.80,South,184,2.0,5.0,80,0.00,,---,0.00,VWS V14.00,2013-07-23 11:56:00,
2013-07-23 07:01:00,77.2,70.6,29.80,South,184,0.0,3.0,80,0.00,,---,0.00,VWS V14.00,2013-07-23 12:01:00,
2013-07-23 07:06:00,77.3,70.7,29.81,South,184,2.0,4.0,80,0.00,,---,0.00,VWS V14.00,2013-07-23 12:06:00,
2013-07-23 07:11:00,77.5,70.8,29.81,South,184,3.0,4.0,80,0.00,,---,0.00,VWS V14.00,2013-07-23 12:11:00,
2013-07-23 07:16:00,77.6,70.9,29.81,South,184,1.0,5.0,80,0.00,,---,0.00,VWS V14.00,2013-07-23 12:16:00,
2013-07-23 07:21:00,77.9,71.2,29.81,South,184,2.0,5.0,80,0.00,,---,0.00,VWS V14.00,2013-07-23 12:21:00,
2013-07-23 07:26:00,78.1,71.4,29.81,South,184,1.0,4.0,80,0.00,,---,0.00,VWS V14.00,2013-07-23 12:26:00,
2013-07-23 07:31:00,78.3,71.6,29.81,South,184,3.0,5.0,80,0.00,,---,0.00,VWS V14.00,2013-07-23 12:31:00,
2013-07-23 07:36:00,78.6,71.6,29.81,South,184,3.0,7.0,79,0.00,,---,0.00,VWS V14.00,2013-07-23 12:36:00,
2013-07-23 07:41:00,78.8,71.7,29.81,SSW,193,9.0,9.0,79,0.00,,---,0.00,VWS V14.00,2013-07-23 12:41:00,
2013-07-23 07:46:00,79.2,71.8,29.81,SSW,201,5.0,12.0,78,0.00,,---,0.00,VWS V14.00,2013-07-23 12:46:00,
2013-07-23 07:51:00,79.6,71.8,29.81,SSW,205,7.0,12.0,77,0.00,,---,0.00,VWS V14.00,2013-07-23 12:51:00,
2013-07-23 07:56:00,80.1,71.9,29.81,SSW,202,6.0,12.0,76,0.00,,---,0.00,VWS V14.00,2013-07-23 12:56:00,
2013-07-23 08:01:00,80.4,71.8,29.81,SSW,201,9.0,12.0,75,0.00,,---,0.00,VWS V14.00,2013-07-23 13:01:00,
2013-07-23 08:06:00,80.8,72.1,29.81,SSW,198,12.0,12.0,75,0.00,,---,0.00,VWS V14.00,2013-07-23 13:06:00,
2013-07-23 08:11:00,81.1,72.0,29.81,SSW,200,5.0,13.0,74,0.00,,---,0.00,VWS V14.00,2013-07-23 13:11:00,
2013-07-23 08:16:00,81.4,72.3,29.81,SSW,207,6.0,13.0,74,0.00,,---,0.00,VWS V14.00,2013-07-23 13:16:00,
2013-07-23 08:21:00,81.7,72.2,29.82,SSW,212,10.0,14.0,73,0.00,,---,0.00,VWS V14.00,2013-07-23 13:21:00,
2013-07-23 08:26:00,81.9,72.4,29.81,SSW,211,7.0,15.0,73,0.00,,---,0.00,VWS V14.00,2013-07-23 13:26:00,
2013-07-23 08:31:00,82.2,72.3,29.81,SSW,207,11.0,12.0,72,0.00,,---,0.00,VWS V14.00,2013-07-23 13:31:00,
2013-07-23 08:36:00,82.4,72.5,29.82,SW,216,9.0,13.0,72,0.00,,---,0.00,VWS V14.00,2013-07-23 13:36:00,
2013-07-23 08:41:00,82.7,72.8,29.82,SSW,205,7.0,12.0,72,0.00,,---,0.00,VWS V14.00,2013-07-23 13:41:00,
2013-07-23 08:46:00,82.9,72.9,29.82,SSW,208,7.0,11.0,72,0.00,,---,0.00,VWS V14.00,2013-07-23 13:46:00,
2013-07-23 08:51:00,83.1,72.7,29.83,SW,219,4.0,11.0,71,0.00,,---,0.00,VWS V14.00,2013-07-23 13:51:00,
2013-07-23 08:56:00,83.3,73.3,29.82,SW,220,4.0,10.0,72,0.00,,---,0.00,VWS V14.00,2013-07-23 13:56:00,
2013-07-23 09:01:00,83.7,73.7,29.83,SW,224,3.0,7.0,72,0.00,,---,0.00,VWS V14.00,2013-07-23 14:01:00,
2013-07-23 09:06:00,84.1,73.3,29.83,SW,217,5.0,10.0,70,0.00,,---,0.00,VWS V14.00,2013-07-23 14:06:00,
2013-07-23 09:11:00,84.6,73.7,29.83,SW,219,9.0,11.0,70,0.00,,---,0.00,VWS V14.00,2013-07-23 14:11:00,
2013-07-23 09:16:00,84.9,73.6,29.83,SW,229,8.0,14.0,69,0.00,,---,0.00,VWS V14.00,2013-07-23 14:16:00,
2013-07-23 09:21:00,85.3,73.6,29.83,WSW,238,10.0,15.0,68,0.00,,---,0.00,VWS V14.00,2013-07-23 14:21:00,
2013-07-23 09:26:00,85.6,73.4,29.83,SSW,213,13.0,14.0,67,0.00,,---,0.00,VWS V14.00,2013-07-23 14:26:00,
2013-07-23 09:31:00,85.9,73.7,29.83,SW,218,13.0,13.0,67,0.00,,---,0.00,VWS V14.00,2013-07-23 14:31:00,
2013-07-23 09:36:00,86.3,73.6,29.83,SW,224,4.0,15.0,66,0.00,,---,0.00,VWS V14.00,2013-07-23 14:36:00,
2013-07-23 09:41:00,86.8,74.5,29.83,SW,227,8.0,16.0,67,0.00,,---,0.00,VWS V14.00,2013-07-23 14:41:00,
2013-07-23 09:46:00,87.1,73.9,29.83,WSW,241,9.0,15.0,65,0.00,,---,0.00,VWS V14.00,2013-07-23 14:46:00,
2013-07-23 09:51:00,87.3,74.1,29.83,WSW,239,8.0,16.0,65,0.00,,---,0.00,VWS V14.00,2013-07-23 14:51:00,
2013-07-23 09:56:00,87.6,73.5,29.83,SW,229,10.0,17.0,63,0.00,,---,0.00,VWS V14.00,2013-07-23 14:56:00,
2013-07-23 10:01:00,87.9,74.2,29.82,WSW,241,14.0,15.0,64,0.00,,---,0.00,VWS V14.00,2013-07-23 15:01:00,
2013-07-23 10:05:00,88.1,73.9,29.82,SW,216,10.0,14.0,63,0.00,,---,0.00,VWS V14.00,2013-07-23 15:05:00,
2013-07-23 10:10:00,88.3,74.1,29.82,SSW,198,13.0,14.0,63,0.00,,---,0.00,VWS V14.00,2013-07-23 15:10:00,
2013-07-23 10:16:00,88.6,74.9,29.82,SW,214,11.0,13.0,64,0.00,,---,0.00,VWS V14.00,2013-07-23 15:16:00,
2013-07-23 10:21:00,88.9,74.7,29.82,SSW,213,7.0,15.0,63,0.00,,---,0.00,VWS V14.00,2013-07-23 15:21:00,
2013-07-23 10:26:00,89.3,75.1,29.82,SSW,198,10.0,14.0,63,0.00,,---,0.00,VWS V14.00,2013-07-23 15:26:00,
2013-07-23 10:31:00,89.6,74.9,29.82,SW,217,10.0,12.0,62,0.00,,---,0.00,VWS V14.00,2013-07-23 15:31:00,
2013-07-23 10:36:00,89.7,75.0,29.81,SSW,194,13.0,15.0,62,0.00,,---,0.00,VWS V14.00,2013-07-23 15:36:00,
2013-07-23 10:41:00,89.9,75.1,29.81,SSW,211,11.0,15.0,62,0.00,,---,0.00,VWS V14.00,2013-07-23 15:41:00,
2013-07-23 10:46:00,90.0,74.8,29.81,SW,234,11.0,13.0,61,0.00,,---,0.00,VWS V14.00,2013-07-23 15:46:00,
2013-07-23 10:51:00,90.1,75.3,29.81,SSW,199,11.0,15.0,62,0.00,,---,0.00,VWS V14.00,2013-07-23 15:51:00,
2013-07-23 10:56:00,90.4,75.6,29.81,SW,220,8.0,16.0,62,0.00,,---,0.00,VWS V14.00,2013-07-23 15:56:00,
2013-07-23 11:01:00,90.6,75.8,29.81,SSW,213,12.0,14.0,62,0.00,,---,0.00,VWS V14.00,2013-07-23 16:01:00,
2013-07-23 11:06:00,90.8,75.5,29.81,SSW,202,9.0,15.0,61,0.00,,---,0.00,VWS V14.00,2013-07-23 16:06:00,
2013-07-23 11:11:00,90.8,76.0,29.81,SW,217,10.0,14.0,62,0.00,,---,0.00,VWS V14.00,2013-07-23 16:11:00,
2013-07-23 11:15:00,91.1,75.3,29.81,SW,227,12.0,14.0,60,0.00,,---,0.00,VWS V14.00,2013-07-23 16:15:00,
2013-07-23 11:21:00,91.4,76.1,29.81,SSW,195,12.0,15.0,61,0.00,,---,0.00,VWS V14.00,2013-07-23 16:21:00,
2013-07-23 11:25:00,91.7,75.8,29.81,SSW,209,2.0,11.0,60,0.00,,---,0.00,VWS V14.00,2013-07-23 16:25:00,
2013-07-23 11:31:00,92.0,75.6,29.81,SW,226,7.0,12.0,59,0.00,,---,0.00,VWS V14.00,2013-07-23 16:31:00,
2013-07-23 11:36:00,92.3,75.9,29.81,SW,215,3.0,10.0,59,0.00,,---,0.00,VWS V14.00,2013-07-23 16:36:00,
2013-07-23 11:41:00,92.6,76.2,29.81,SW,215,9.0,13.0,59,0.00,,---,0.00,VWS V14.00,2013-07-23 16:41:00,
2013-07-23 11:46:00,92.8,75.9,29.81,SW,229,8.0,12.0,58,0.00,,---,0.00,VWS V14.00,2013-07-23 16:46:00,
2013-07-23 11:51:00,93.0,76.1,29.81,SSW,209,9.0,14.0,58,0.00,,---,0.00,VWS V14.00,2013-07-23 16:51:00,
2013-07-23 11:56:00,93.2,75.7,29.82,SW,226,6.0,12.0,57,0.00,,---,0.00,VWS V14.00,2013-07-23 16:56:00,
2013-07-23 12:01:00,93.3,76.3,29.82,West,281,9.0,14.0,58,0.00,,---,0.00,VWS V14.00,2013-07-23 17:01:00,
2013-07-23 12:06:00,93.5,76.0,29.82,WSW,246,3.0,9.0,57,0.00,,---,0.00,VWS V14.00,2013-07-23 17:06:00,
2013-07-23 12:11:00,93.8,76.3,29.82,SW,214,5.0,10.0,57,0.00,,---,0.00,VWS V14.00,2013-07-23 17:11:00,
2013-07-23 12:16:00,94.2,76.1,29.81,SW,232,6.0,10.0,56,0.00,,---,0.00,VWS V14.00,2013-07-23 17:16:00,
2013-07-23 12:21:00,94.4,75.8,29.81,SW,225,8.0,13.0,55,0.00,,---,0.00,VWS V14.00,2013-07-23 17:21:00,
2013-07-23 12:26:00,94.7,76.0,29.81,SW,233,6.0,13.0,55,0.00,,---,0.00,VWS V14.00,2013-07-23 17:26:00,
2013-07-23 12:30:00,94.8,76.1,29.81,SW,217,7.0,10.0,55,0.00,,---,0.00,VWS V14.00,2013-07-23 17:30:00,
2013-07-23 12:35:00,94.9,76.2,29.81,SSW,211,4.0,11.0,55,0.00,,---,0.00,VWS V14.00,2013-07-23 17:35:00,
2013-07-23 12:40:00,95.1,75.8,29.81,West,259,6.0,13.0,54,0.00,,---,0.00,VWS V14.00,2013-07-23 17:40:00,
2013-07-23 12:45:00,95.5,76.2,29.80,SW,218,5.0,13.0,54,0.00,,---,0.00,VWS V14.00,2013-07-23 17:45:00,
2013-07-23 12:51:00,95.6,75.8,29.80,SW,219,7.0,13.0,53,0.00,,---,0.00,VWS V14.00,2013-07-23 17:51:00,
2013-07-23 12:56:00,95.7,75.8,29.80,SSW,203,5.0,14.0,53,0.00,,---,0.00,VWS V14.00,2013-07-23 17:56:00,
2013-07-23 13:01:00,95.7,75.8,29.80,South,182,12.0,14.0,53,0.00,,---,0.00,VWS V14.00,2013-07-23 18:01:00,
2013-07-23 13:06:00,96.2,77.4,29.80,SSW,211,8.0,10.0,55,0.00,,---,0.00,VWS V14.00,2013-07-23 18:06:00,
2013-07-23 13:11:00,96.2,75.7,29.79,West,266,5.0,15.0,52,0.00,,---,0.00,VWS V14.00,2013-07-23 18:11:00,
2013-07-23 13:16:00,96.1,77.3,29.79,WSW,244,7.0,12.0,55,0.00,,---,0.00,VWS V14.00,2013-07-23 18:16:00,
2013-07-23 13:23:00,96.5,76.0,29.79,SSW,208,6.0,13.0,52,0.00,,---,0.00,VWS V14.00,2013-07-23 18:23:00,
2013-07-23 13:28:00,96.9,76.4,29.78,South,187,4.0,7.0,52,0.00,,---,0.00,VWS V14.00,2013-07-23 18:28:00,
2013-07-23 13:33:00,97.3,76.7,29.78,SSW,210,11.0,14.0,52,0.00,,---,0.00,VWS V14.00,2013-07-23 18:33:00,
2013-07-23 13:38:00,97.4,77.4,29.78,SSW,209,10.0,12.0,53,0.00,,---,0.00,VWS V14.00,2013-07-23 18:38:00,
2013-07-23 13:43:00,97.6,76.4,29.78,SSW,193,3.0,11.0,51,0.00,,---,0.00,VWS V14.00,2013-07-23 18:43:00,
2013-07-23 13:48:00,97.4,75.7,29.78,WSW,241,9.0,13.0,50,0.00,,---,0.00,VWS V14.00,2013-07-23 18:48:00,
2013-07-23 13:53:00,97.3,76.2,29.77,SSW,209,9.0,13.0,51,0.00,,---,0.00,VWS V14.00,2013-07-23 18:53:00,
2013-07-23 13:58:00,97.6,76.4,29.77,SSW,200,5.0,6.0,51,0.00,,---,0.00,VWS V14.00,2013-07-23 18:58:00,
2013-07-23 14:03:00,97.8,76.6,29.77,South,184,7.0,10.0,51,0.00,,---,0.00,VWS V14.00,2013-07-23 19:03:00,
2013-07-23 14:08:00,98.2,76.4,29.76,SW,215,11.0,15.0,50,0.00,,---,0.00,VWS V14.00,2013-07-23 19:08:00,
2013-07-23 14:13:00,98.0,76.8,29.76,SW,216,10.0,13.0,51,0.00,,---,0.00,VWS V14.00,2013-07-23 19:13:00,
2013-07-23 14:18:00,97.9,76.7,29.76,South,173,6.0,13.0,51,0.00,,---,0.00,VWS V14.00,2013-07-23 19:18:00,
2013-07-23 14:23:00,98.0,78.0,29.76,South,175,10.0,14.0,53,0.00,,---,0.00,VWS V14.00,2013-07-23 19:23:00,
2013-07-23 14:28:00,98.2,77.0,29.76,South,181,6.0,13.0,51,0.00,,---,0.00,VWS V14.00,2013-07-23 19:28:00,
2013-07-23 14:33:00,98.2,77.0,29.77,South,178,6.0,7.0,51,0.00,,---,0.00,VWS V14.00,2013-07-23 19:33:00,
2013-07-23 14:38:00,98.1,76.9,29.76,SSW,200,13.0,14.0,51,0.00,,---,0.00,VWS V14.00,2013-07-23 19:38:00,
2013-07-23 14:43:00,98.3,77.7,29.77,South,180,4.0,7.0,52,0.00,,---,0.00,VWS V14.00,2013-07-23 19:43:00,
2013-07-23 14:49:00,98.7,76.2,29.77,SSW,196,8.0,14.0,49,0.00,,---,0.00,VWS V14.00,2013-07-23 19:49:00,
2013-07-23 14:54:00,99.0,77.7,29.76,SSW,212,4.0,10.0,51,0.00,,---,0.00,VWS V14.00,2013-07-23 19:54:00,
2013-07-23 14:59:00,99.2,76.1,29.76,SW,222,8.0,14.0,48,0.00,,---,0.00,VWS V14.00,2013-07-23 19:59:00,
2013-07-23 15:04:00,99.2,74.8,29.76,SW,221,6.0,10.0,46,0.00,,---,0.00,VWS V14.00,2013-07-23 20:04:00,
2013-07-23 15:09:00,99.4,76.2,29.76,SSW,207,17.0,18.0,48,0.00,,---,0.00,VWS V14.00,2013-07-23 20:09:00,
2013-07-23 15:14:00,99.4,75.6,29.76,SSW,201,6.0,14.0,47,0.00,,---,0.00,VWS V14.00,2013-07-23 20:14:00,
2013-07-23 15:20:00,99.3,75.5,29.76,SSW,203,8.0,15.0,47,0.00,,---,0.00,VWS V14.00,2013-07-23 20:20:00,
2013-07-23 15:25:00,99.2,76.7,29.75,SSW,205,10.0,11.0,49,0.00,,---,0.00,VWS V14.00,2013-07-23 20:25:00,
2013-07-23 15:30:00,99.2,76.1,29.75,SSW,207,9.0,14.0,48,0.00,,---,0.00,VWS V14.00,2013-07-23 20:30:00,
2013-07-23 15:35:00,99.4,75.0,29.74,South,185,11.0,13.0,46,0.00,,---,0.00,VWS V14.00,2013-07-23 20:35:00,
2013-07-23 15:40:00,99.6,75.8,29.74,WSW,253,17.0,17.0,47,0.00,,---,0.00,VWS V14.00,2013-07-23 20:40:00,
2013-07-23 15:45:00,99.5,75.7,29.74,SSE,155,11.0,17.0,47,0.00,,---,0.00,VWS V14.00,2013-07-23 20:45:00,
2013-07-23 15:50:00,99.5,75.7,29.74,SSW,210,10.0,17.0,47,0.00,,---,0.00,VWS V14.00,2013-07-23 20:50:00,
2013-07-23 15:55:00,99.4,76.2,29.73,SSW,206,8.0,13.0,48,0.00,,---,0.00,VWS V14.00,2013-07-23 20:55:00,
2013-07-23 16:01:00,99.4,76.2,29.73,SSW,211,12.0,15.0,48,0.00,,---,0.00,VWS V14.00,2013-07-23 21:01:00,
2013-07-23 16:06:00,99.4,75.6,29.73,SSW,194,6.0,15.0,47,0.00,,---,0.00,VWS V14.00,2013-07-23 21:06:00,
2013-07-23 16:11:00,99.5,75.1,29.73,SW,217,6.0,18.0,46,0.00,,---,0.00,VWS V14.00,2013-07-23 21:11:00,
2013-07-23 16:16:00,99.6,74.5,29.73,SSW,207,6.0,15.0,45,0.00,,---,0.00,VWS V14.00,2013-07-23 21:16:00,
2013-07-23 16:21:00,99.7,74.6,29.73,SW,214,11.0,15.0,45,0.00,,---,0.00,VWS V14.00,2013-07-23 21:21:00,
2013-07-23 16:26:00,99.6,74.5,29.72,SSW,201,8.0,17.0,45,0.00,,---,0.00,VWS V14.00,2013-07-23 21:26:00,
2013-07-23 16:31:00,99.5,75.7,29.73,SSW,210,11.0,14.0,47,0.00,,---,0.00,VWS V14.00,2013-07-23 21:31:00,
2013-07-23 16:37:00,99.4,74.3,29.72,SW,227,12.0,16.0,45,0.00,,---,0.00,VWS V14.00,2013-07-23 21:37:00,
2013-07-23 16:42:00,99.2,75.4,29.72,SW,224,6.0,13.0,47,0.00,,---,0.00,VWS V14.00,2013-07-23 21:42:00,
2013-07-23 16:47:00,99.2,75.4,29.72,SW,233,8.0,18.0,47,0.00,,---,0.00,VWS V14.00,2013-07-23 21:47:00,
2013-07-23 16:52:00,99.1,76.0,29.72,SW,217,5.0,13.0,48,0.00,,---,0.00,VWS V14.00,2013-07-23 21:52:00,
2013-07-23 16:57:00,99.2,75.4,29.72,SW,227,6.0,12.0,47,0.00,,---,0.00,VWS V14.00,2013-07-23 21:57:00,
2013-07-23 17:02:00,99.2,75.4,29.72,SW,225,6.0,11.0,47,0.00,,---,0.00,VWS V14.00,2013-07-23 22:02:00,
2013-07-23 17:07:00,99.0,74.6,29.72,SW,225,9.0,15.0,46,0.00,,---,0.00,VWS V14.00,2013-07-23 22:07:00,
2013-07-23 17:12:00,98.7,74.3,29.72,SW,231,7.0,14.0,46,0.00,,---,0.00,VWS V14.00,2013-07-23 22:12:00,
2013-07-23 17:17:00,98.6,74.9,29.72,WSW,238,7.0,16.0,47,0.00,,---,0.00,VWS V14.00,2013-07-23 22:17:00,
2013-07-23 17:22:00,98.5,74.8,29.72,SW,225,9.0,16.0,47,0.00,,---,0.00,VWS V14.00,2013-07-23 22:22:00,
2013-07-23 17:27:00,98.5,74.8,29.72,SSW,213,9.0,9.0,47,0.00,,---,0.00,VWS V14.00,2013-07-23 22:27:00,
2013-07-23 17:32:00,98.5,74.8,29.72,SW,227,6.0,6.0,47,0.00,,---,0.00,VWS V14.00,2013-07-23 22:32:00,
2013-07-23 17:37:00,98.5,74.8,29.72,SW,230,10.0,10.0,47,0.00,,---,0.00,VWS V14.00,2013-07-23 22:37:00,
2013-07-23 17:42:00,98.4,74.7,29.72,SW,217,6.0,8.0,47,0.00,,---,0.00,VWS V14.00,2013-07-23 22:42:00,
2013-07-23 17:47:00,98.1,75.1,29.72,SSW,197,10.0,11.0,48,0.00,,---,0.00,VWS V14.00,2013-07-23 22:47:00,
2013-07-23 17:52:00,97.9,75.5,29.71,SSW,212,2.0,10.0,49,0.00,,---,0.00,VWS V14.00,2013-07-23 22:52:00,
2013-07-23 17:57:00,97.7,74.7,29.71,SSW,208,11.0,12.0,48,0.00,,---,0.00,VWS V14.00,2013-07-23 22:57:00,
2013-07-23 18:02:00,97.7,74.1,29.71,SW,230,11.0,13.0,47,0.00,,---,0.00,VWS V14.00,2013-07-23 23:02:00,
2013-07-23 18:07:00,97.6,74.6,29.71,SW,222,11.0,11.0,48,0.00,,---,0.00,VWS V14.00,2013-07-23 23:07:00,
2013-07-23 18:12:00,97.6,74.0,29.71,SW,229,7.0,10.0,47,0.00,,---,0.00,VWS V14.00,2013-07-23 23:12:00,
2013-07-23 18:18:00,97.5,74.5,29.71,SW,230,9.0,11.0,48,0.00,,---,0.00,VWS V14.00,2013-07-23 23:18:00,
2013-07-23 18:24:00,97.5,74.5,29.71,SSW,205,6.0,12.0,48,0.00,,---,0.00,VWS V14.00,2013-07-23 23:24:00,
2013-07-23 18:29:00,97.5,75.1,29.71,SSW,206,4.0,11.0,49,0.00,,---,0.00,VWS V14.00,2013-07-23 23:29:00,
2013-07-23 18:34:00,97.4,75.1,29.70,SSW,210,5.0,9.0,49,0.00,,---,0.00,VWS V14.00,2013-07-23 23:34:00,
2013-07-23 18:39:00,97.4,75.1,29.70,SW,217,5.0,11.0,49,0.00,,---,0.00,VWS V14.00,2013-07-23 23:39:00,
2013-07-23 18:44:00,97.2,74.9,29.70,SSW,209,5.0,10.0,49,0.00,,---,0.00,VWS V14.00,2013-07-23 23:44:00,
2013-07-23 18:49:00,97.0,74.7,29.70,WSW,238,6.0,12.0,49,0.00,,---,0.00,VWS V14.00,2013-07-23 23:49:00,
2013-07-23 18:54:00,96.9,75.2,29.70,SW,230,4.0,10.0,50,0.00,,---,0.00,VWS V14.00,2013-07-23 23:54:00,
2013-07-23 18:59:00,96.8,74.5,29.70,SSW,202,5.0,11.0,49,0.00,,---,0.00,VWS V14.00,2013-07-23 23:59:00,
2013-07-23 19:05:00,96.8,75.1,29.70,SSW,213,4.0,7.0,50,0.00,,---,0.00,VWS V14.00,2013-07-24 00:05:00,
2013-07-23 19:10:00,96.7,75.0,29.70,SSW,212,9.0,9.0,50,0.00,,---,0.00,VWS V14.00,2013-07-24 00:10:00,
2013-07-23 19:15:00,96.5,74.8,29.70,SSW,205,5.0,11.0,50,0.00,,---,0.00,VWS V14.00,2013-07-24 00:15:00,
2013-07-23 19:20:00,96.3,75.2,29.70,SW,214,4.0,9.0,51,0.00,,---,0.00,VWS V14.00,2013-07-24 00:20:00,
2013-07-23 19:25:00,96.2,75.2,29.70,SSW,209,4.0,11.0,51,0.00,,---,0.00,VWS V14.00,2013-07-24 00:25:00,
2013-07-23 19:30:00,96.0,75.0,29.70,SSW,212,4.0,9.0,51,0.00,,---,0.00,VWS V14.00,2013-07-24 00:30:00,
2013-07-23 19:35:00,95.7,74.1,29.70,SSW,210,4.0,11.0,50,0.00,,---,0.00,VWS V14.00,2013-07-24 00:35:00,
2013-07-23 19:40:00,95.5,74.5,29.70,SW,215,5.0,8.0,51,0.00,,---,0.00,VWS V14.00,2013-07-24 00:40:00,
2013-07-23 19:45:00,95.3,74.9,29.70,SW,215,9.0,9.0,52,0.00,,---,0.00,VWS V14.00,2013-07-24 00:45:00,
2013-07-23 19:50:00,95.0,74.6,29.70,SSW,211,5.0,10.0,52,0.00,,---,0.00,VWS V14.00,2013-07-24 00:50:00,
2013-07-23 19:56:00,94.7,74.9,29.70,SSW,211,5.0,6.0,53,0.00,,---,0.00,VWS V14.00,2013-07-24 00:56:00,
2013-07-23 20:01:00,94.4,75.2,29.70,SSW,210,6.0,7.0,54,0.00,,---,0.00,VWS V14.00,2013-07-24 01:01:00,
2013-07-23 20:06:00,94.2,75.0,29.71,SSW,210,2.0,7.0,54,0.00,,---,0.00,VWS V14.00,2013-07-24 01:06:00,
2013-07-23 20:11:00,93.9,75.3,29.71,SSW,210,4.0,4.0,55,0.00,,---,0.00,VWS V14.00,2013-07-24 01:11:00,
2013-07-23 20:16:00,93.6,75.6,29.70,SSW,210,0.0,4.0,56,0.00,,---,0.00,VWS V14.00,2013-07-24 01:16:00,
2013-07-23 20:22:00,93.3,75.3,29.71,SSW,210,2.0,4.0,56,0.00,,---,0.00,VWS V14.00,2013-07-24 01:22:00,
2013-07-23 20:27:00,92.9,75.4,29.71,SSW,210,3.0,4.0,57,0.00,,---,0.00,VWS V14.00,2013-07-24 01:27:00,
2013-07-23 20:32:00,92.5,75.1,29.71,SSW,210,2.0,4.0,57,0.00,,---,0.00,VWS V14.00,2013-07-24 01:32:00,
2013-07-23 20:38:00,92.1,75.2,29.71,SSW,210,0.0,2.0,58,0.00,,---,0.00,VWS V14.00,2013-07-24 01:38:00,
2013-07-23 20:42:00,91.8,75.4,29.71,SSW,210,0.0,3.0,59,0.00,,---,0.00,VWS V14.00,2013-07-24 01:42:00,
2013-07-23 20:47:00,91.5,75.2,29.71,SSW,210,1.0,2.0,59,0.00,,---,0.00,VWS V14.00,2013-07-24 01:47:00,
2013-07-23 20:52:00,91.2,75.4,29.70,SSW,210,0.0,0.0,60,0.00,,---,0.00,VWS V14.00,2013-07-24 01:52:00,
2013-07-23 20:58:00,90.9,75.6,29.71,SSW,210,0.0,0.0,61,0.00,,---,0.00,VWS V14.00,2013-07-24 01:58:00,
2013-07-23 21:03:00,90.6,75.3,29.72,SSW,210,0.0,0.0,61,0.00,,---,0.00,VWS V14.00,2013-07-24 02:03:00,
2013-07-23 21:08:00,90.2,75.4,29.72,SSW,210,0.0,0.0,62,0.00,,---,0.00,VWS V14.00,2013-07-24 02:08:00,
2013-07-23 21:13:00,89.9,75.1,29.72,SSW,210,0.0,0.0,62,0.00,,---,0.00,VWS V14.00,2013-07-24 02:13:00,
2013-07-23 21:18:00,89.6,75.3,29.72,SSW,210,0.0,0.0,63,0.00,,---,0.00,VWS V14.00,2013-07-24 02:18:00,
2013-07-23 21:23:00,89.3,75.5,29.72,SSW,210,0.0,0.0,64,0.00,,---,0.00,VWS V14.00,2013-07-24 02:23:00,
2013-07-23 21:28:00,89.1,75.3,29.71,SSW,210,0.0,0.0,64,0.00,,---,0.00,VWS V14.00,2013-07-24 02:28:00,
2013-07-23 21:33:00,88.9,75.6,29.70,SSW,210,0.0,0.0,65,0.00,,---,0.00,VWS V14.00,2013-07-24 02:33:00,
2013-07-23 21:39:00,88.5,75.7,29.70,SSW,210,3.0,5.0,66,0.00,,---,0.00,VWS V14.00,2013-07-24 02:39:00,
2013-07-23 21:44:00,88.1,75.3,29.70,SSW,210,3.0,6.0,66,0.00,,---,0.00,VWS V14.00,2013-07-24 02:44:00,
2013-07-23 21:49:00,87.8,75.5,29.70,SSW,210,3.0,4.0,67,0.00,,---,0.00,VWS V14.00,2013-07-24 02:49:00,
2013-07-23 21:54:00,87.6,75.3,29.70,SSW,210,3.0,5.0,67,0.00,,---,0.00,VWS V14.00,2013-07-24 02:54:00,
2013-07-23 21:59:00,87.5,75.2,29.70,SSW,210,3.0,5.0,67,0.00,,---,0.00,VWS V14.00,2013-07-24 02:59:00,
2013-07-23 22:04:00,87.3,75.4,29.70,SSW,210,0.0,3.0,68,0.00,,---,0.00,VWS V14.00,2013-07-24 03:04:00,
2013-07-23 22:09:00,87.2,75.4,29.71,SSW,210,4.0,5.0,68,0.00,,---,0.00,VWS V14.00,2013-07-24 03:09:00,
2013-07-23 22:14:00,87.1,75.3,29.71,SSW,210,3.0,5.0,68,0.00,,---,0.00,VWS V14.00,2013-07-24 03:14:00,
2013-07-23 22:19:00,87.1,75.3,29.72,SSW,210,1.0,4.0,68,0.00,,---,0.00,VWS V14.00,2013-07-24 03:19:00,
2013-07-23 22:24:00,87.0,75.2,29.71,SSW,210,2.0,5.0,68,0.00,,---,0.00,VWS V14.00,2013-07-24 03:24:00,
2013-07-23 22:30:00,86.9,75.1,29.72,SSW,210,0.0,5.0,68,0.00,,---,0.00,VWS V14.00,2013-07-24 03:30:00,
2013-07-23 22:35:00,86.9,75.5,29.73,SSW,210,2.0,3.0,69,0.00,,---,0.00,VWS V14.00,2013-07-24 03:35:00,
2013-07-23 22:40:00,86.9,75.5,29.73,SSW,210,0.0,4.0,69,0.00,,---,0.00,VWS V14.00,2013-07-24 03:40:00,
2013-07-23 22:45:00,86.8,75.4,29.73,SSW,210,4.0,5.0,69,0.00,,---,0.00,VWS V14.00,2013-07-24 03:45:00,
2013-07-23 22:50:00,86.7,75.3,29.73,SSW,210,3.0,5.0,69,0.00,,---,0.00,VWS V14.00,2013-07-24 03:50:00,
2013-07-23 22:56:00,86.6,75.7,29.72,SSW,210,2.0,6.0,70,0.00,,---,0.00,VWS V14.00,2013-07-24 03:56:00,
2013-07-23 23:01:00,86.5,75.6,29.72,SSW,210,4.0,7.0,70,0.00,,---,0.00,VWS V14.00,2013-07-24 04:01:00,
2013-07-23 23:06:00,86.4,75.5,29.72,SSW,211,5.0,8.0,70,0.00,,---,0.00,VWS V14.00,2013-07-24 04:06:00,
2013-07-23 23:11:00,86.3,75.8,29.72,SSW,211,6.0,10.0,71,0.00,,---,0.00,VWS V14.00,2013-07-24 04:11:00,
2013-07-23 23:16:00,86.3,75.8,29.72,SSW,208,4.0,9.0,71,0.00,,---,0.00,VWS V14.00,2013-07-24 04:16:00,
2013-07-23 23:21:00,86.2,75.7,29.73,SSW,209,4.0,9.0,71,0.00,,---,0.00,VWS V14.00,2013-07-24 04:21:00,
2013-07-23 23:26:00,86.1,75.6,29.73,SW,219,7.0,10.0,71,0.00,,---,0.00,VWS V14.00,2013-07-24 04:26:00,
2013-07-23 23:31:00,86.0,75.5,29.73,SW,222,9.0,12.0,71,0.00,,---,0.00,VWS V14.00,2013-07-24 04:31:00,
2013-07-23 23:36:00,85.9,75.4,29.74,SW,224,5.0,11.0,71,0.00,,---,0.00,VWS V14.00,2013-07-24 04:36:00,
2013-07-23 23:41:00,85.9,75.4,29.75,SW,223,8.0,10.0,71,0.00,,---,0.00,VWS V14.00,2013-07-24 04:41:00,
2013-07-23 23:46:00,85.9,75.4,29.75,SW,214,7.0,13.0,71,0.00,,---,0.00,VWS V14.00,2013-07-24 04:46:00,
2013-07-23 23:51:00,86.0,75.1,29.76,SW,215,4.0,10.0,70,0.00,,---,0.00,VWS V14.00,2013-07-24 04:51:00,
2013-07-23 23:56:00,86.0,74.2,29.78,North,360,32.0,34.0,68,0.00,,---,0.00,VWS V14.00,2013-07-24 04:56:00,